Weather reports worldwide

Advertisment
Isle Of Portland, United Kingdom (3857): temperature & dewpoint: 20.06.2019 16:00:00 - 26.06.2019 16:00:00 (BST)Isle Of Portland, United Kingdom (3857): wind speed & gusts: 20.06.2019 16:00:00 - 26.06.2019 16:00:00 (BST)Isle Of Portland, United Kingdom (3857): wind direction: 20.06.2019 16:00:00 - 26.06.2019 16:00:00 (BST)Isle Of Portland, United Kingdom (3857): reduced air pressure: 20.06.2019 16:00:00 - 26.06.2019 16:00:00 (BST)Isle Of Portland, United Kingdom (3857): visibility: 20.06.2019 16:00:00 - 26.06.2019 16:00:00 (BST)Isle Of Portland, United Kingdom (3857): precipitation: 20.06.2019 16:00:00 - 26.06.2019 16:00:00 (BST)
Date & Time tt [°C] td [°C] ff [km/h] ff [kn] fx [km/h] fx [kn] dd ppp [hPa] vv [km] rr [mm]
26.06.2019 16:00:00 - - - - - - - - - -
26.06.2019 15:00:00 23,1 17,4 26 14 - - NE 1024,5 24 0,0
26.06.2019 14:00:00 22,1 17,6 29 16 - - ENE 1024,7 30 0,0
26.06.2019 13:00:00 21,6 17,9 34 18 - - ENE 1024,9 19 0,0
26.06.2019 12:00:00 18,9 16,5 28 15 - - ENE 1025,5 14 0,0
26.06.2019 11:00:00 18,8 17,1 22 12 - - NE 1025,8 12 0,0
26.06.2019 10:00:00 17,1 15,8 22 12 - - ENE 1026,1 8 0,0
26.06.2019 09:00:00 17,6 16,5 26 14 - - NE 1024,6 5 0,0
26.06.2019 08:00:00 16,9 16,4 26 14 - - NE 1024,3 3,5 0,0
26.06.2019 07:00:00 17,0 16,6 24 13 - - NE 1024,1 3,0 0,0
26.06.2019 06:00:00 17,0 16,5 24 13 - - NE 1023,8 3,4 0,0
26.06.2019 05:00:00 17,1 16,6 22 12 - - NE 1023,5 4,3 0,0
26.06.2019 04:00:00 17,1 16,6 24 13 - - NE 1022,9 4,7 0,0
26.06.2019 03:00:00 17,7 17,2 21 11 - - NE 1022,8 4,5 0,0
26.06.2019 02:00:00 18,0 17,5 21 11 - - NE 1022,9 5 0,0
26.06.2019 01:00:00 18,3 17,6 15 8 - - NE 1022,9 6 0,0
26.06.2019 00:00:00 18,0 17,7 9 5 - - NNE 1022,7 8 0,0
25.06.2019 23:00:00 15,9 15,0 8 4 - - N 1022,2 8 0,0
25.06.2019 22:00:00 15,7 15,2 5 3 - - E 1022,0 9 0,0
25.06.2019 21:00:00 15,7 14,8 4 2 - - SW 1021,3 7 0,0
25.06.2019 20:00:00 16,1 14,7 11 6 - - SSW 1021,1 10 0,0
25.06.2019 19:00:00 17,6 15,1 8 4 - - S 1020,7 9 0,0
25.06.2019 18:00:00 18,8 14,9 8 4 - - WNW 1020,2 15 0,0
25.06.2019 17:00:00 18,2 15,7 9 5 - - WNW 1019,8 11 0,0
25.06.2019 16:00:00 19,6 16,5 9 5 - - NW 1019,3 7 0,0
25.06.2019 15:00:00 18,9 16,6 9 5 - - NW 1019,3 8 0,0
25.06.2019 14:00:00 18,4 16,6 8 4 - - NW 1019,2 7 0,0
25.06.2019 13:00:00 17,0 15,8 8 4 - - WNW 1019,0 5 0,0
25.06.2019 12:00:00 16,9 15,9 5 3 - - WNW 1018,7 7 0,0
25.06.2019 11:00:00 16,8 15,4 5 3 - - NW 1018,3 9 0,0
25.06.2019 10:00:00 16,7 15,9 5 3 - - NW 1018,0 8 0,2
25.06.2019 09:00:00 15,7 15,4 8 4 - - NNW 1017,8 6 0,0
25.06.2019 08:00:00 15,3 15,0 5 3 - - NW 1017,5 6 0,0
25.06.2019 07:00:00 14,9 14,6 9 5 - - NNW 1017,5 4,0 1,0
25.06.2019 06:00:00 15,0 14,3 5 3 - - W 1017,7 5 3,2
25.06.2019 05:00:00 15,4 14,0 18 10 - - NNW 1016,3 11 0,0
25.06.2019 04:00:00 15,4 14,0 18 10 - - N 1016,5 10 0,0
25.06.2019 03:00:00 15,7 13,7 21 11 - - N 1016,5 24 0,0
25.06.2019 02:00:00 15,1 14,2 8 4 - - NNE 1017,2 18 0,2
25.06.2019 01:00:00 14,5 14,4 9 5 - - NNW 1018,2 4,1 0,2
25.06.2019 00:00:00 14,6 14,3 9 5 - - NNW 1018,2 4,2 0,0
24.06.2019 23:00:00 14,9 14,5 9 5 - - NNW 1018,6 8 0,0
24.06.2019 22:00:00 14,9 14,3 8 4 - - NW 1018,3 6 0,2
24.06.2019 21:00:00 15,1 14,4 4 2 - - NW 1018,3 10 0,0
24.06.2019 20:00:00 15,0 14,3 8 4 - - NW 1018,1 9 0,0
24.06.2019 19:00:00 15,1 14,3 5 3 - - NW 1017,8 6 0,0
24.06.2019 18:00:00 15,1 14,4 9 5 - - WNW 1017,4 5 0,0
24.06.2019 17:00:00 14,7 14,2 11 6 - - W 1017,2 1,6 0,0
24.06.2019 16:00:00 15,5 14,2 9 5 - - SSW 1017,2 2,9 0,0
24.06.2019 15:00:00 15,0 14,6 11 6 - - SW 1017,4 0,3 0,0
24.06.2019 14:00:00 15,6 14,6 13 7 - - SW 1017,7 7 0,0
24.06.2019 13:00:00 14,9 14,8 15 8 - - W 1017,0 0,4 0,0
24.06.2019 12:00:00 14,8 14,8 11 6 - - WSW 1017,0 0,3 0,0
24.06.2019 11:00:00 14,5 14,5 11 6 - - W 1016,5 0,2 0,0
24.06.2019 10:00:00 14,2 14,1 15 8 - - W 1016,0 0,4 0,0
24.06.2019 09:00:00 14,6 14,2 15 8 - - WSW 1015,7 1,0 0,0
24.06.2019 08:00:00 14,8 14,5 9 5 - - W 1015,0 3,6 0,0
24.06.2019 07:00:00 14,9 14,5 13 7 - - WSW 1014,3 2,8 0,0
24.06.2019 06:00:00 15,1 14,6 11 6 - - NNW 1013,2 2,7 0,0
24.06.2019 05:00:00 15,4 14,5 11 6 - - NNW 1013,0 3,0 0,0
24.06.2019 04:00:00 15,8 14,8 9 5 - - NW 1013,0 5 0,0
24.06.2019 03:00:00 17,0 15,4 15 8 - - E 1012,7 12 0,0
24.06.2019 02:00:00 16,9 15,1 22 12 - - E 1012,8 12 0,0
24.06.2019 01:00:00 16,9 15,2 26 14 - - ENE 1012,9 10 0,0
24.06.2019 00:00:00 17,2 15,4 26 14 - - E 1012,8 9 0,0
23.06.2019 23:00:00 17,0 15,5 26 14 - - E 1013,2 9 0,0
23.06.2019 22:00:00 16,6 15,1 26 14 - - E 1013,0 8 0,0
23.06.2019 21:00:00 16,3 14,8 24 13 - - E 1012,9 8 0,0
23.06.2019 20:00:00 16,2 14,6 29 16 - - E 1012,4 8 0,0
23.06.2019 19:00:00 16,5 14,7 35 19 - - E 1011,9 7 0,0
23.06.2019 18:00:00 16,0 14,5 29 16 - - E 1012,5 7 0,0
23.06.2019 17:00:00 15,8 14,1 29 16 - - E 1012,9 8 0,0
23.06.2019 16:00:00 16,2 14,3 16 9 - - E 1014,3 9 0,0
23.06.2019 15:00:00 16,2 14,1 18 10 - - E 1014,3 9 0,0
23.06.2019 14:00:00 16,5 14,0 24 13 - - E 1014,6 9 0,0
23.06.2019 13:00:00 16,7 14,5 18 10 - - E 1014,8 9 0,0
23.06.2019 12:00:00 17,7 14,6 26 14 - - E 1014,9 14 0,0
23.06.2019 11:00:00 16,3 14,2 28 15 - - E 1015,8 12 0,0
23.06.2019 10:00:00 16,3 14,0 28 15 - - E 1016,0 12 0,0
23.06.2019 09:00:00 16,2 13,6 28 15 - - ENE 1016,2 16 0,0
23.06.2019 08:00:00 15,3 13,0 29 16 - - E 1015,9 18 0,0
23.06.2019 07:00:00 14,7 12,5 22 12 - - ENE 1015,8 17 0,0
23.06.2019 06:00:00 14,5 11,9 26 14 - - ENE 1016,2 19 0,0
23.06.2019 05:00:00 14,6 12,1 26 14 - - ENE 1016,5 21 0,0
23.06.2019 04:00:00 14,4 12,1 26 14 - - E 1016,6 22 0,0
23.06.2019 03:00:00 14,5 12,5 28 15 - - E 1017,2 18 0,0
23.06.2019 02:00:00 14,4 12,5 24 13 - - E 1017,7 18 0,0
23.06.2019 01:00:00 14,3 12,7 26 14 - - E 1017,9 19 0,0
23.06.2019 00:00:00 14,2 12,3 26 14 - - E 1018,2 21 0,0
22.06.2019 23:00:00 14,0 12,0 26 14 - - E 1018,4 27 0,0
22.06.2019 22:00:00 13,9 11,6 21 11 - - E 1018,5 35 0,0
22.06.2019 21:00:00 14,1 11,0 22 12 - - E 1018,5 35 0,0
22.06.2019 20:00:00 14,6 11,2 22 12 - - E 1018,7 30 0,0
22.06.2019 19:00:00 15,4 12,2 22 12 - - E 1018,9 27 0,0
22.06.2019 18:00:00 15,6 12,5 22 12 - - E 1019,1 24 0,0
22.06.2019 17:00:00 16,1 12,8 22 12 - - E 1019,6 23 0,0
22.06.2019 16:00:00 17,0 13,3 24 13 - - E 1020,1 35 0,0
22.06.2019 15:00:00 16,7 12,0 22 12 - - E 1020,3 35 0,0
22.06.2019 14:00:00 16,7 12,7 21 11 - - ESE 1020,8 30 0,0
22.06.2019 13:00:00 16,8 13,4 21 11 - - ESE 1021,2 45 0,0
22.06.2019 12:00:00 17,1 14,0 16 9 - - ESE 1021,2 20 0,0
22.06.2019 11:00:00 16,6 14,0 16 9 - - ESE 1021,2 30 0,0
22.06.2019 10:00:00 16,0 13,3 15 8 - - ESE 1021,4 35 0,0
22.06.2019 09:00:00 15,7 13,7 11 6 - - ESE 1021,5 30 0,0
22.06.2019 08:00:00 14,4 12,9 11 6 - - ESE 1021,6 30 0,0
22.06.2019 07:00:00 13,7 12,9 11 6 - - SE 1021,4 19 0,0
22.06.2019 06:00:00 12,2 11,8 13 7 - - ESE 1021,4 15 0,0
22.06.2019 05:00:00 11,1 9,6 18 10 - - E 1021,3 35 0,0
22.06.2019 04:00:00 11,2 7,2 4 2 - - ESE 1021,8 50 0,0
22.06.2019 03:00:00 10,8 7,0 16 9 - - NE 1021,6 50 0,0
22.06.2019 02:00:00 11,5 8,4 8 4 - - NNW 1022,1 40 0,0
22.06.2019 01:00:00 11,4 8,1 8 4 - - N 1022,1 26 0,0
22.06.2019 00:00:00 12,2 10,9 9 5 - - N 1022,0 19 0,0
21.06.2019 23:00:00 12,9 11,9 8 4 - - NNW 1021,9 22 0,0
21.06.2019 22:00:00 13,3 12,0 9 5 - - NNW 1022,1 17 0,0
21.06.2019 21:00:00 13,8 11,6 13 7 - - W 1021,9 19 0,0
21.06.2019 20:00:00 14,8 11,7 13 7 - - W 1021,6 20 0,0
21.06.2019 19:00:00 15,7 11,8 11 6 - - WSW 1021,5 20 0,0
21.06.2019 18:00:00 16,1 11,9 16 9 - - WSW 1021,4 18 0,0
21.06.2019 17:00:00 16,3 12,2 22 12 - - WSW 1021,4 17 0,0
21.06.2019 16:00:00 16,2 12,3 24 13 - - SW 1021,2 29 0,0
21.06.2019 15:00:00 16,4 12,3 22 12 - - WSW 1021,0 45 0,0
21.06.2019 14:00:00 16,5 13,8 18 10 - - SW 1021,0 18 0,0
21.06.2019 13:00:00 15,9 13,1 15 8 - - WSW 1020,9 40 0,0
21.06.2019 12:00:00 15,8 13,0 13 7 - - WSW 1020,8 30 0,0
21.06.2019 11:00:00 15,6 13,4 15 8 - - W 1020,7 19 0,0
21.06.2019 10:00:00 14,6 12,3 16 9 - - W 1020,4 21 0,0
21.06.2019 09:00:00 13,9 12,0 18 10 - - W 1020,1 19 0,0
21.06.2019 08:00:00 12,7 12,1 16 9 - - NW 1019,7 17 0,6
21.06.2019 07:00:00 13,2 11,8 21 11 - - W 1019,3 19 0,0
21.06.2019 06:00:00 12,9 11,4 21 11 - - W 1018,9 22 0,0
21.06.2019 05:00:00 12,6 11,1 22 12 - - W 1018,6 30 0,0
21.06.2019 04:00:00 12,5 10,7 18 10 - - W 1018,5 35 0,0
21.06.2019 03:00:00 12,8 10,0 21 11 - - W 1018,3 40 0,0
21.06.2019 02:00:00 12,9 9,8 24 13 - - W 1018,1 30 0,0
21.06.2019 01:00:00 13,2 10,5 24 13 - - WNW 1017,9 30 0,0
21.06.2019 00:00:00 13,2 11,9 22 12 - - W 1017,4 17 0,0
20.06.2019 23:00:00 13,4 11,9 28 15 - - W 1017,2 14 0,0
20.06.2019 22:00:00 13,9 10,6 24 13 - - WNW 1016,6 30 0,0
20.06.2019 21:00:00 14,0 11,4 31 17 - - W 1016,0 14 0,0
20.06.2019 20:00:00 14,1 11,9 37 20 46 25 WSW 1015,7 11 0,0
20.06.2019 19:00:00 14,6 12,0 35 19 46 25 WSW 1015,6 14 0,0
20.06.2019 18:00:00 15,2 12,4 31 17 - - WSW 1015,7 17 0,0
20.06.2019 17:00:00 14,6 12,1 29 16 - - WSW 1015,6 16 0,0
20.06.2019 16:00:00 14,4 11,7 35 19 - - WSW 1015,5 22 0,0

tt = temperature
td = dewpoint
ff = wind speed
fx = gusts
dd = wind direction
ppp = reduced air pressure
vv = visibility
rr = precipitation

Next stations